This is the latest recevied weather packets stored in our database for station/object SP7RCS-11. If no packets are shown the sender has not sent any weather packets the latest 10 day(s).
| Time | Temp. | Humidity | Pressure | Rain* | Wind** | Luminosity | Snow |
|---|---|---|---|---|---|---|---|
| 1777851911 | 20.56° C | 32% | 1008.6 hPa | - | - | - | - |
| 1777851011 | 20.56° C | 33% | 1008.6 hPa | - | - | - | - |
| 1777850111 | 20.56° C | 32% | 1008.7 hPa | - | - | - | - |
| 1777849211 | 20.56° C | 32% | 1008.6 hPa | - | - | - | - |
| 1777848311 | 21.11° C | 31% | 1008.6 hPa | - | - | - | - |
| 1777847411 | 21.11° C | 31% | 1008.7 hPa | - | - | - | - |
| 1777846511 | 21.67° C | 31% | 1008.7 hPa | - | - | - | - |
| 1777845611 | 21.67° C | 30% | 1008.8 hPa | - | - | - | - |
| 1777844711 | 21.67° C | 30% | 1008.8 hPa | - | - | - | - |
| 1777843810 | 21.67° C | 30% | 1008.7 hPa | - | - | - | - |
| 1777842910 | 22.78° C | 29% | 1008.7 hPa | - | - | - | - |
| 1777842010 | 22.78° C | 29% | 1008.7 hPa | - | - | - | - |
| 1777841110 | 22.78° C | 28% | 1008.7 hPa | - | - | - | - |
| 1777840210 | 22.78° C | 29% | 1008.7 hPa | - | - | - | - |
| 1777839310 | 23.33° C | 28% | 1008.7 hPa | - | - | - | - |
| 1777838410 | 23.89° C | 28% | 1008.6 hPa | - | - | - | - |
| 1777837510 | 23.89° C | 27% | 1008.6 hPa | - | - | - | - |
| 1777836610 | 23.89° C | 27% | 1008.7 hPa | - | - | - | - |
| 1777835710 | 24.44° C | 26% | 1008.7 hPa | - | - | - | - |
| 1777834810 | 25.56° C | 25% | 1008.5 hPa | - | - | - | - |
| 1777833910 | 25.56° C | 25% | 1008.4 hPa | - | - | - | - |
| 1777833009 | 26.11° C | 24% | 1008.5 hPa | - | - | - | - |
| 1777832109 | 27.22° C | 23% | 1008.3 hPa | - | - | - | - |
| 1777831209 | 27.22° C | 22% | 1008.1 hPa | - | - | - | - |
| 1777830308 | 28.33° C | 22% | 1008.1 hPa | - | - | - | - |
* Rain since midnight (hover to see other rain measurements)
** Current wind speed in m/s (hover to see current wind gust speed)